THOR ABLESTAR DEB, 2432

Orbit data source: Space-Track

THOR ABLESTAR DEB, 2432 is space debris in LEO originally from a launch on Thu, 05 Dec 1963 UTC launched from the Air Force Western Test Range (AFWTR). Debris objects in space refer to the collection of defunct objects orbiting the Earth. Examples of debris include non-operational satellites, rocket bodies, and fragments generated from explosions, collisions, or faulty payload assembly.

Loading next visibility...
Identifier
2432, 1963-049G
Orbit
LEO
Country
Flag of USUS
Related business
Manufacturer
Unknown
Mission
Spacecraft
Bus & Motor
Unknown
Mass
Unknown
Launch date (UTC)
1963-12-05 (62 years ago)
Launch vehicle
Unknown
Launch site
Air Force Western Test Range (AFWTR)
Object type
Payload
Rocket body
Debris
Shape & HBR
Unknown shape, 0.2 m
Radar Cross Section
Medium (>0.1 m² and <1 m²)

Expand to show TLE details & history
Last TLE update: 19 hours ago

TLE from 19 hours ago
0 THOR ABLESTAR DEB
1 02432U 63049G   25340.84443464  .00000171  00000-0  25910-3 0  9993
2 02432  89.9225  72.2094 0035871  70.3521  50.7510 13.48223512 46788
Epoch: 2025-12-06T20:15Z
TLE epoch observation values (Epoch: 2025-12-06T20:15:59.152Z)
Latitude
58.66914°
Longitude
-127.78006°
Altitude
1,071.93 km
Speed
7.33 km/s
True Right ascension
16h 48m 19s
True Declination
58° 31' 21"
Sunlit
Object was in daylight at epoch
Visualization orbit readout
Latitude
Unknown
Longitude
Unknown
Altitude
Unknown
Speed
Unknown
Apparent Right ascension
Unknown
Apparent Declination
Unknown
Sunlit
N/A
Visualization observer readout
Local Sidereal Time
12:53:07
Azimuth
Unknown
Elevation
Unknown
Doppler factor
Unknown
Orbital elements
Apogee altitude
1,102.592 km
Perigee altitude
1,049.116 km
Semi-major axis
7,453.991 km
Eccentricity
0.00359
Inclination
89.9225°
RAAN
72.2094°
Arg. of periapsis
70.3521°
True anomaly
51.07022°
Mean anomaly
50.751°
Eccentric anomaly
50.91052°
Mean motion
3.37256 °/min
Orbital period
106.74 mins
BSTAR
0.0002591
Loading maneuver chart data...
Computing Atmospheric mass density...
Loading historical data...
Loading historical data...
Loading historical data...
Loading historical data...
Loading historical data...
Loading historical data...
Loading historical data...

Documentation

Showing up to 5 results
|